Location: Black Point
(38.1102°N, 122.5055°W)
Time: 22:28:29
(UTC+00:00)

PAYLOAD A - Visible Passes

Search period start: 18 November 2025 00:00
Search period end: 28 November 2025 00:00
Orbit: 691 x 828 km, 98.6° (Epoch: 18 November)

Date Brightness Start Highest point End Pass type
(mag) Time Alt. Az. Time Alt. Az. Time Alt. Az.
18 Nov 7.0 11:07:49 10° NE 11:08:15 11° ENE 11:08:15 11° ENE visible
18 Nov 4.7 12:44:52 10° N 12:48:18 39° NNW 12:48:18 39° NNW visible
19 Nov 5.5 12:06:25 10° NNE 12:09:03 29° NNE 12:09:03 29° NNE visible
19 Nov 5.6 13:46:41 10° NNW 13:49:06 16° NW 13:49:06 16° NW visible
20 Nov 6.6 11:28:41 10° NE 11:29:48 15° NE 11:29:48 15° NE visible
20 Nov 5.1 13:07:04 10° N 13:09:52 27° NNW 13:09:52 27° NNW visible
21 Nov 5.4 12:28:16 10° NNE 12:30:38 27° N 12:30:38 27° N visible
22 Nov 6.3 11:50:06 10° NNE 11:51:25 17° NE 11:51:25 17° NE visible
22 Nov 5.6 13:29:31 10° NNW 13:31:28 18° NNW 13:31:28 18° NNW visible
23 Nov 5.6 12:50:20 10° N 12:52:16 22° N 12:52:16 22° N visible
24 Nov 6.1 12:11:48 10° NNE 12:13:02 17° NNE 12:13:02 17° NNE visible
24 Nov 5.9 13:52:26 10° NNW 13:53:06 12° NW 13:53:06 12° NW visible
25 Nov 5.8 13:12:34 10° N 13:13:54 17° NNW 13:13:54 17° NNW visible
26 Nov 6.1 12:33:41 10° N 12:34:42 16° N 12:34:42 16° N visible
27 Nov 6.7 11:55:26 10° NNE 11:55:30 10° NNE 11:55:30 10° NNE visible
27 Nov 6.0 13:35:06 10° NNW 13:35:34 12° NNW 13:35:34 12° NNW visible
